Regional Weather Roundup
Issued by NWS

Home | Current Version | Previous Version | Graphics & Text | Print | Product List | Glossary On
Versions: 1 2 3 4 5 6 7 8 9 10 11 12 13 14 15 16 17 18 19 20 21 22 23 24 25 26 27 28 29 30 31 32 33 34 35 36 37 38 39 40 41 42 43 44 45 46 47 48 49 50
000
ASUS43 KMPX 061810
RWRMN
WEATHER ROUNDUP FOR MINNESOTA
NATIONAL WEATHER SERVICE TWIN CITIES/CHANHASSEN MN
1200 PM CST SAT FEB 06 2016


NOTE: "FAIR" INDICATES FEW OR NO CLOUDS BELOW 12,000 FEET WITH NO
SIGNIFICANT WEATHER AND/OR OBSTRUCTIONS TO VISIBILITY. N/A MEANS
CURRENT SKY AND/OR WEATHER CONDITIONS ARE NOT AVAILABLE.

MNZ060>063-068>070-061900-
   Twin Cities Metro

CITY           SKY/WX    TMP DP  RH WIND       PRES   REMARKS
TWIN CITIES    CLOUDY    33  25  72 S14       30.05F WCI  23
6HR MIN TEMP:  26; 6HR MAX TEMP:  33;

ST PAUL        CLOUDY    30  25  81 S17       30.06F WCI  18
CRYSTAL        MOSUNNY   32  24  72 S14       30.02F WCI  22
BLAINE         PTSUNNY   34  27  75 S12       30.02F WCI  25
LAKEVILLE      CLOUDY    28  27  93 S8        30.06F WCI  20
EDEN PRAIRIE   MOSUNNY   32  25  75 S17G24    30.02F WCI  21
6HR MIN TEMP:  26; 6HR MAX TEMP:  32;

SOUTH ST PAUL  MOSUNNY   32  25  76 SE10      30.06F WCI  24
LAKE ELMO      CLOUDY    30  27  86 S14G21    30.06F WCI  20
$$
MNZ001>005-007-008-013>017-022>024-027-028-061900-
   Northwest Minnesota

CITY           SKY/WX    TMP DP  RH WIND       PRES   REMARKS
BEMIDJI        MOSUNNY   31  24  73 S7        29.79F WCI  25
HALLOCK        CLOUDY    28  25  86 S15       29.71F WCI  17
ROSEAU         MOSUNNY   30  23  74 S12       29.75F WCI  21
WARROAD        CLOUDY    27  21  80 E5        29.76F WCI  21
THIEF RVR FALL CLOUDY    30  25  80 S9        29.76F WCI  22
CROOKSTON      CLOUDY    30  27  86 S15       29.76F WCI  19
FOSSTON        CLOUDY    30  25  80 S14       29.77F WCI  20
DETROIT LAKES  CLOUDY    34  27  75 S12G17    29.81F WCI  25
MOORHEAD       CLOUDY    32  27  80 S9        29.81F WCI  24
PARK RAPIDS    CLOUDY    33  24  69 S9        29.81F WCI  25
MAHNOMEN       CLOUDY    32  26  77 S17       29.78F WCI  21
$$
MNZ006-009>011-018-025>026-061900-
   North Central Minnesota

CITY           SKY/WX    TMP DP  RH WIND       PRES   REMARKS
BAUDETTE       CLOUDY    27  19  72 SE10      29.78F WCI  17
FLAG ISLAND    CLOUDY    25  19  80 E6        29.77F WCI  18
INTL FALLS     CLOUDY    26  19  74 SE9       29.83F WCI  17
6HR MIN TEMP:  17; 6HR MAX TEMP:  26;

WASKISH        CLOUDY    34  23  64 SE7       29.80F WCI  28
LONGVILLE      CLOUDY    30  23  74 S9        29.84F WCI  22
GRAND RAPIDS   CLOUDY    28  21  74 S10       29.86F WCI  19
CRANE LAKE     CLOUDY    25  18  74 S2        29.90F
ORR            CLOUDY    28  18  64 SE3       29.82F
COOK           CLOUDY    27  19  74 SE6       29.87F WCI  20
WALKER         FAIR      32  23  69 S6        29.81F WCI  26
$$
MNZ012-019>021-037-061900-
   Northeast Minnesota

CITY           SKY/WX    TMP DP  RH WIND       PRES   REMARKS
DULUTH         CLOUDY    28  21  75 S10       29.91F WCI  19
6HR MIN TEMP:  18; 6HR MAX TEMP:  28;

ELY            CLOUDY    27  18  69 S8        29.88F WCI  18
HIBBING        CLOUDY    27  20  75 SE10      29.87F WCI  17
EVELETH        CLOUDY    30  21  69 S6        29.88F WCI  24
DULUTH HARBOR  CLOUDY    30  25  80 S10       29.97F WCI  21
TWO HARBORS    CLOUDY    28  21  74 SW8       29.92F WCI  20
SILVER BAY     CLOUDY    27  19  74 S6        29.92F WCI  20
GRAND MARAIS     N/A     29  23  78 SW9       29.97F WCI  20
G MARAIS ARPRT CLOUDY    25  16  68 S3        29.90F
$$
MNZ029>031-032-039>041-046>048-054>057-064-061900-
   West Central Minnesota

CITY           SKY/WX    TMP DP  RH WIND       PRES   REMARKS
FERGUS FALLS   CLOUDY    34  27  75 S13       29.87F WCI  25
WHEATON        CLOUDY    37  30  75 SW10      29.87F
MORRIS         CLOUDY    36  28  75 S15       29.86F
ALEXANDRIA     CLOUDY    35  24  64 S16       29.88F WCI  25
ELBOW LAKE     FAIR      33  28  81 S10       29.86F HAZE    WCI  24
WADENA         MOSUNNY   34  25  69 S8        29.84F WCI  27
GLENWOOD       MOSUNNY   34  27  75 S18       29.90F WCI  23
APPLETON       CLOUDY    39  25  56 S12       29.91F
BENSON         MOSUNNY   36  27  69 SW10      29.91F
ORTONVILLE     CLOUDY    39  25  56 SW13      29.88F
MADISON        CLOUDY    39  27  60 SW13      29.92F
WILLMAR        FAIR      37  28  70 SW10G17   29.96F
$$
MNZ033>034-036-042>043-049>051-058-059-061900-
   Central Minnesota

CITY           SKY/WX    TMP DP  RH WIND       PRES   REMARKS
ST CLOUD       CLOUDY    30  23  75 S13       29.95F WCI  20
6HR MIN TEMP:  22; 6HR MAX TEMP:  30;

SAUK CENTRE    FAIR      34  26  74 S8        29.91F WCI  27
PAYNESVILLE    CLOUDY    34  26  72 S8        29.95F WCI  28
AITKIN         MOSUNNY   32  21  64 S10       29.88F WCI  24
PINE RIVER     CLOUDY    32  25  74 S8        29.89F WCI  25
BRAINERD       CLOUDY    31  23  72 S15       29.89F WCI  20
STAPLES        CLOUDY    34  25  69 S12       29.86F WCI  25
LONG PRAIRIE   CLOUDY    34  27  75 S14G20    29.90F WCI  24
LITTLE FALLS   MOSUNNY   32  23  69 S15       29.91F WCI  22
LITCHFIELD     MOSUNNY   36  27  69 S7        29.97F
BUFFALO        MOSUNNY   31  24  75 S12       30.01F WCI  22
MAPLE LAKE     CLOUDY    32  26  77 S9G16     29.99F WCI  24
$$
MNZ037-044-045-052-053-061900-
   East Central Minnesota

CITY           SKY/WX    TMP DP  RH WIND       PRES   REMARKS
PRINCETON      MOSUNNY   34  25  69 S13       29.98F WCI  25
MORA           SUNNY     32  25  74 S12       29.98F WCI  23
CAMBRIDGE      SUNNY     34  25  69 S14       29.97F WCI  24
RUSH CITY      SUNNY     33  25  72 S12       30.00F WCI  24
MOOSE LAKE     MOSUNNY   32  25  74 S14       29.92F WCI  22
HINCKLEY       FAIR      32  27  80 S14       29.97F WCI  22
CLOQUET        CLOUDY    28  21  74 S10       29.91F WCI  19
MCGREGOR       SUNNY     34  27  75 S13       29.89F WCI  25
$$
MNZ071>073-080-081-089-090-097-098-061900-
   Southwest Minnesota

CITY           SKY/WX    TMP DP  RH WIND       PRES   REMARKS
MONTEVIDEO     CLOUDY    37  27  65 SW14G20   29.95F
GRANITE FALLS  CLOUDY    37  29  73 S16       29.98F
CANBY          CLOUDY    40  29  64 SW22G28   29.93F
MARSHALL       MOSUNNY   36  23  59 SW20      29.96F
REDWOOD FALLS  CLOUDY    33  26  75 SW18      29.99F WCI  22
OLIVIA         CLOUDY    34  28  80 SW16      29.97F WCI  23
PIPESTONE        N/A     30  21  69 SW13      29.99F WCI  20
WINDOM         CLOUDY    30  25  80 S16       30.04F WCI  19
WORTHINGTON    CLOUDY    28  23  80 SW18      30.05F WCI  16
JACKSON        MOSUNNY   32  27  80 SW15      30.07F WCI  22
TRACY          MOSUNNY   33  25  73 SW21      29.99F WCI  21
SLAYTON        MOSUNNY   28  25  89 SW16      30.00F WCI  16
$$
MNZ065>067-074>077-082>085-091>093-061900-
   South Central Minnesota

CITY           SKY/WX    TMP DP  RH WIND       PRES   REMARKS
MANKATO        CLOUDY    30  25  80 S12       30.06F WCI  21
NEW ULM        MOSUNNY   32  25  74 S14       30.03F WCI  22
ST JAMES       CLOUDY    32  28  86 S16       30.06F WCI  21
FAIRMONT       SUNNY     27  25  93 S13       30.07F WCI  16
GLENCOE        MOSUNNY   32  28  86 S12G18    30.01F WCI  23
FARIBAULT      CLOUDY    30  27  86 S12G17    30.07F WCI  21
OWATONNA       CLOUDY    28  27  93 S15       30.08F WCI  17
WASECA         CLOUDY    30  28  93 S17       30.09F FOG     WCI  18
ALBERT LEA     CLOUDY    28  28 100 S9        30.10F FOG     WCI  20
$$
MNZ078>079-086>088-094>096-061900-
   Southeast Minnesota

CITY           SKY/WX    TMP DP  RH WIND       PRES   REMARKS
ROCHESTER      CLOUDY    25  23  92 S16       30.11F FOG     WCI  12
6HR MIN TEMP:  24; 6HR MAX TEMP:  26; 6HR PCP: TRACE;

RED WING       SUNNY     32  23  69 S10       30.09F WCI  24
STANTON        CLOUDY    31  26  80 S9        30.06F WCI  23
DODGE CENTER   LGT SNOW  27  25  93 SW12      30.09F WCI  16
WINONA         MOSUNNY   34  27  75 S6        30.14F WCI  29
AUSTIN         LGT SNOW  27  27 100 S15       30.12F WCI  15
PRESTON        CLOUDY    26  24  90 SW9       30.13F FOG     WCI  17
$$
ABBREVIATIONS USED IN REMARKS
   TC - TEMPERATURES IN CELSIUS
  WCI - WIND CHILL INDEX
   HX - HEAT INDEX
  VSB - VISIBILITY
$$



USA.gov is the U.S. government's official web portal to all federal, state and local government web resources and services.